Regional Weather Roundup
Issued by NWS Sterling, VA

Home | Current Version | Previous Version | Text Only | Print | Product List | Glossary Off
Versions: 1 2 3 4 5 6 7 8 9 10 11 12 13 14 15 16 17 18 19 20 21 22 23 24 25 26 27 28 29 30 31 32 33 34 35 36 37 38 39 40 41 42 43 44 45 46 47 48 49 50

000
ASUS41 KLWX 211910
RWRLWX

REGIONAL WEATHER ROUNDUP
NATIONAL WEATHER SERVICE BALTIMORE MD/WASHINGTON DC
300 PM EDT SUN SEP 21 2014

Note: "FAIR" indicates few or no clouds below 12,000 feet
with no significant weather and/or obstructions to visibility.
 TC=TEMPERATURE CELSIUS

 * =Non NWS site. Station does not report precipitation (e.g. rain,
    snow, etc.), thunder, or fog.

DCZ001-MDZ009-015-VAZ040>042-051-053>054-212000-
WASHINGTON METRO

CITY           SKY/WX    TMP DP  RH WIND       PRES   REMARKS
WASHINGTON NAT PTSUNNY   85  59  41 S7        29.70F
DULLES         MOSUNNY   82  61  48 VRB6      29.70F
ANDREWS AFB    SUNNY     82  63  52 SE7       29.70F
QUANTICO       SUNNY     80  58  46 SW7       29.72F
COLLEGE PARK*  SUNNY     86  59  39 S3        29.69F
LEESBURG*      SUNNY     86  63  45 S6        29.70F
GAITHERSBURG*  MOSUNNY   82  63  51 S6        29.74F

$$

MDZ006>007-011-014-212000-
BALTIMORE METRO

CITY           SKY/WX    TMP DP  RH WIND       PRES   REMARKS
BWI AIRPORT    PTSUNNY   82  61  48 VRB6      29.69F
MD SCIENCE CTR   N/A     80  62  54 MISG      29.69F
MARTIN STATE   SUNNY     77  66  69 S6        29.72F
ANNAPOLIS      MOSUNNY   74  66  76 SE5       29.70F
FORT MEADE*    MOSUNNY   81  61  50 CALM      29.71F

$$

MDZ012-015-019>023-212000-
MARYLAND EASTERN SHORE

CITY           SKY/WX    TMP DP  RH WIND       PRES   REMARKS
OCEAN CITY     CLOUDY    77  69  76 NE10G18   29.69F
SALISBURY      CLOUDY    81  68  64 N9        29.70F
BAY BRIDGE AP*   N/A     79  57  47 E3        29.70F
CAMBRIDGE*     PTSUNNY   77  64  65 CALM      29.70F
EASTON*        PTSUNNY   81  64  57 CALM      29.75F

$$

MDZ017>025-212000-
SOUTHERN MARYLAND

CITY           SKY/WX    TMP DP  RH WIND       PRES   REMARKS
PATUXENT RIVER PTSUNNY   79  64  60 E9        29.71F
ST INIGOES     MOSUNNY   80  63  55 NE3       29.70F
LEONARDTOWN*   MOSUNNY   79  59  50 CALM      29.73F

$$

MDZ003>005-212000-
NORTH CENTRAL MARYLAND

CITY           SKY/WX    TMP DP  RH WIND       PRES   REMARKS
FREDERICK*     MOSUNNY   90  63  40 S5        29.72F HX  90
HAGERSTOWN APT MOSUNNY   83  61  47 SW7       29.68F
WESTMINSTER*   MOSUNNY   82  63  51 S6        29.70F

$$

MDZ501>502-212000-
WESTERN MARYLAND

CITY           SKY/WX    TMP DP  RH WIND       PRES   REMARKS
OAKLAND*       PTSUNNY   66 N/A N/A W12G17    29.81F
CUMBERLAND*    MOSUNNY   88  59  37 W15G24    29.72F

$$

VAZ025>031-212000-
SHENANDOAH VALLEY

CITY           SKY/WX    TMP DP  RH WIND       PRES   REMARKS
WINCHESTER*    MOSUNNY   88  59  37 SW9G16    29.69F
STAUNTON*      MOSUNNY   88  56  33 W10G23    29.75F

$$

WVZ021-048>050-054>055-212000-
EASTERN WEST VIRGINIA PANHANDLE

CITY           SKY/WX    TMP DP  RH WIND       PRES   REMARKS
MARTINSBURG    MOSUNNY   86  58  38 SE6       29.68F
PETERSBURG*    PTSUNNY   84  55  37 W13G23    29.72F

$$

VAZ036>039-050-212000-
CENTRAL FOOTHILLS

CITY           SKY/WX    TMP DP  RH WIND       PRES   REMARKS
CHARLOTTESVILL MOSUNNY   86  60  41 W6        29.72F
ORANGE*        MOSUNNY   86  57  37 S10       29.73F

$$

VAZ055>057-212000-
NORTH AND CENTRAL PIEDMONT

CITY           SKY/WX    TMP DP  RH WIND       PRES   REMARKS
FREDERICKSBRG* SUNNY     87  58  37 SW3       29.70F
STAFFORD*      SUNNY     84  61  45 W5        29.75F

$$

NCZ024-NYZ072-PAZ021-071-VAZ022-071-212000-
OTHER REGIONAL OBSERVATIONS

CITY           SKY/WX    TMP DP  RH WIND       PRES   REMARKS
NEW YORK CITY  CLOUDY    74  67  78 CALM      29.75F HAZE
PHILADELPHIA   PTSUNNY   76  66  71 SE5       29.71F
PITTSBURGH     MOSUNNY   79  60  52 SW13      29.67F
ROANOKE        PTSUNNY   81  62  52 W10       29.82F
RICHMOND       MOSUNNY   87  56  34 VRB3      29.72F
RALEIGH        MOSUNNY   86  61  42 NW9       29.81F

$$

ANZ530>537-212000-
MARINE OBSERVATIONS

STATION/POSITION TIME  TEMP    WIND        PRES
                       AIR SEA DIR/SP/G
                 (UTC) (F)     (DEG/KT/KT) (MB)
THOMAS PT LIGHT  1900   73 74  170/  4/  4 1006.9F
BALT KEY BRIDGE  1900   71     120/  7/  9 1005.8F
COVE POINT       1900   73      80/  6/  7 1006.2F
LEWISETTA        1900   76 74  100/  3/  3 1005.8F
SOLOMONS ISLAND  1900      76                N/A
PINEY POINT      1900           CALM  /  2   N/A

$$




USA.gov is the U.S. government's official web portal to all federal, state and local government web resources and services.